Regional Weather Roundup
Issued by NWS

Home | Current Version | Previous Version | Text Only | Print | Product List | Glossary On
Versions: 1 2 3 4 5 6 7 8 9 10 11 12 13 14 15 16 17 18 19 20 21 22 23 24 25 26 27 28 29 30 31 32 33 34 35 36 37 38 39 40 41 42 43 44 45 46 47 48 49 50
000
ASUS42 KTBW 260216
RWRFL
FLORIDA REGIONAL WEATHER ROUNDUP
NATIONAL WEATHER SERVICE TAMPA BAY RUSKIN FL
1000 PM EDT MON JUL 25 2016

NOTE: "FAIR" INDICATES FEW OR NO CLOUDS BELOW 12,000 FEET WITH NO
SIGNIFICANT WEATHER AND/OR OBSTRUCTIONS TO VISIBILITY.

FLZ001>010-012>015-112-114-115-260300-
PANHANDLE FLORIDA

CITY           SKY/WX    TMP DP  RH WIND       PRES   REMARKS
PENSACOLA      MOCLDY    85  75  72 SE13      29.97R
PENSACOLA NAS  MOCLDY    85  74  69 SE13      29.96R
MILTON NAS     LGT RAIN  79  76  90 SE9       29.99
CRESTVIEW      PTCLDY    78  75  90 E6        30.01R
DUKE FIELD     MOCLDY    78  76  91 E3        30.00R
VALPARAISO     PTCLDY    83  75  77 SE13      29.99S
MARY ESTHER    MOCLDY    83  74  76 SE10      29.97
PANAMA CITY    MOCLDY    82  75  79 SE5       30.00R
TYNDALL AFB    PTCLDY    82  74  75 S13       30.00R
APALACHICOLA   PTCLDY    84  76  76 S14G20    30.01R

STATION/POSITION SKY/WX   TEMP    WIND        PRES    WAVE   SWELL
                          AIR SEA DIR/SP/G            HT/PER HT/PER
                          (F)     (DEG/KT/KT) (MB)    (FT/S) (FT/S)
30.1N   87.6W              85 89  150/ 16/ 23 1014.4R   4/ 5
29.2N   88.2W              83 87  150/  8/ 10 1012.9F
28.8N   86.0W              83 87  200/ 16/ 17 1015.4R   4/ 5
PANAMA CITY BEAC           84 88  160/ 18/ 20   N/A
TOWER C                    83     200/ 20/ 22 1016.9R
28.5N   84.5W              84 87  210/ 17/ 21 1016.4F   3/ 5

$$
FLZ011-016>038-118-127-128-134-139-239-260300-
NORTH FLORIDA

CITY           SKY/WX    TMP DP  RH WIND       PRES   REMARKS
MARIANNA       CLEAR     81  75  82 S5        30.01R
TALLAHASSEE    PTCLDY    82  75  79 SE3       30.03R
PERRY          CLEAR     80  75  86 CALM      30.04S
LIVE OAK       FAIR      82  75  78 CALM      30.06R
CROSS CITY       N/A     82  75  79 VRB6      30.05R
LAKE CITY      MOCLDY    79  73  83 S6        30.06R
GAINESVILLE    CLOUDY    77  73  87 S6        30.06S
WILLISTON      FAIR      77  75  94 E3        30.07R
PALATKA        FAIR      79  75  89 W5        30.06R
MAYPORT NAS    PTCLDY    83  73  72 S12       30.05R
JACKSONVILLE   PTCLDY    82  73  74 S9        30.05R
JAX NAS        CLOUDY    86  72  62 SE10      30.05R
JAX CECIL      CLOUDY    81  73  78 CALM      30.05S
FERNANDINA BEA FAIR      86  73  66 S7        30.04R
ST AUGUSTINE   CLEAR     83  73  72 S6        30.06R
PALM COAST     CLOUDY    81  74  78 SE5       30.05S

STATION/POSITION SKY/WX   TEMP    WIND        PRES    WAVE   SWELL
                          AIR SEA DIR/SP/G            HT/PER HT/PER
                          (F)     (DEG/KT/KT) (MB)    (FT/S) (FT/S)
SHELL POINT                85     200/ 12/ 17 1015.2
KEATON BEACH               85     190/ 10/ 11 1016.9R
CEDAR KEY                  85     230/  6/  8 1017.8R
FERNANDINA                 84 90  160/  6/  9   N/A
30.7N   81.3W                 86                N/A     3/ 4
MAYPORT                    84 88  170/  5/ 10   N/A
31.4N   80.9W              85 87  150/ 14/ 17 1017.3R   2/ 3   2/ 8
ST AUGUSTINE               83 86  160/ 16/ 17 1018.4R

$$
FLZ040-043>046-052-053-057-058-063-144-260300-
INTERIOR CENTRAL FLORIDA

CITY           SKY/WX    TMP DP  RH WIND       PRES   REMARKS
OCALA          MOCLDY    75  72  88 N5        30.06F THUNDER
THE VILLAGES     N/A     77  73  88 MISG      29.97R
LEESBURG       MOCLDY    83  74  74 N5        30.06R
SANFORD        CLEAR     80  75  84 S5        30.05S
ORLANDO EXEC   PTCLDY    83  75  77 S14       30.06R
ORLANDO INTL   PTCLDY    81  73  76 S8        30.07R
KISSIMMEE      CLEAR     81  73  76 S6        30.08R
WINTER HAVEN   CLOUDY    77  73  87 SW6       30.09R
LAKELAND       MOCLDY    75  73  94 S5        30.08R
BARTOW         MOCLDY    75  75 100 CALM      30.08S
OKEECHOBEE     CLEAR     73  72  94 CALM      30.07R

$$
FLZ041-047-054-059-064-141-147-260300-
EAST CENTRAL FLORIDA

CITY           SKY/WX    TMP DP  RH WIND       PRES   REMARKS
DAYTONA BEACH  PTCLDY    83  74  74 VRB6      30.05S
NEW SMYRNA BEA PTCLDY    82  73  74 S12       30.06R
JFK SPACE CTR  CLEAR     82  75  77 S6        30.05R
CAPE CANAVERAL CLEAR     84  75  75 S9        30.04S
PATRICK AFB    CLEAR     84  76  74 SE10      30.05R
MELBOURNE      CLEAR     81  71  71 S8        30.06R
VERO BEACH     CLEAR     79  71  76 SW5       30.06R
FT PIERCE      CLEAR     76  73  91 CALM      30.06R

STATION/POSITION SKY/WX   TEMP    WIND        PRES    WAVE   SWELL
                          AIR SEA DIR/SP/G            HT/PER HT/PER
                          (F)     (DEG/KT/KT) (MB)    (FT/S) (FT/S)
28.5N   80.2W              84 85  160/ 14/ 16 1018.0R
28.9N   78.5W              85 87  160/ 10/ 12 1018.4R
TRIDENT PIER               84 88  160/ 13/ 16   N/A
28.4N   80.5W                 86                N/A     3/ 3
27.5N   80.2W                 85                N/A     1/ 8

$$
FLZ050-056-061-142-242-148-248-149-249-151-251-155-255-
160-260-260300-
WEST CENTRAL FLORIDA

CITY           SKY/WX    TMP DP  RH WIND       PRES   REMARKS
CRYSTAL RIVER  MOCLDY    79  73  83 CALM      30.05R
INVERNESS      CLOUDY    77  77 100 CALM      30.06R
BROOKSVILLE    PTCLDY    80  74  81 CALM      30.06R
ZEPHYRHILLS    MOCLDY    67  65  94 S5        30.07R
CLEARWATER AIR FAIR      81  72  74 SW5       30.04S
ST PETE CLEARW PTCLDY    81  69  67 S5        30.05R
TAMPA INTL     PTCLDY    83  71  67 SW9       30.05R
TAMPA EXEC     CLOUDY    84  73  70 S3        30.06S
PLANT CITY     DRIZZLE   81  77  89 S5        30.09R
MACDILL AFB    CLOUDY    83  75  76 SW2       30.05R
PETER O KNIGHT CLOUDY    86  77  74 S7        30.06R HX  97
ST PETERSBURG  MOCLDY    84  72  67 W6        30.03R
SARASOTA       CLOUDY    86  74  67 SW6       30.04R
VENICE         NOT AVBL

STATION/POSITION SKY/WX   TEMP    WIND        PRES    WAVE   SWELL
                          AIR SEA DIR/SP/G            HT/PER HT/PER
                          (F)     (DEG/KT/KT) (MB)    (FT/S) (FT/S)
27.3N   84.2W                 86                N/A     3/ 5
CLEARWATER BEACH           85 88  210/ 13/ 15   N/A
MIDDLE TAMPA BAY                  230/  9/ 11   N/A
VENICE                     85 88  190/  5/  6 1017.4R

$$
FLZ066-069-070-075>078-162-262-165-265-260300-
SOUTHWEST FLORIDA AND KEYS

CITY           SKY/WX    TMP DP  RH WIND       PRES   REMARKS
PUNTA GORDA    MOCLDY    79  74  84 E6        30.08R
FT MYERS       MOCLDY    79  74  84 E3        30.05S
SOUTHWEST INTL PTCLDY    79  73  82 E5        30.06R
NAPLES         CLEAR     79  76  90 NE3       30.05R
MARCO ISLAND   CLOUDY    81  72  74 N3        30.06R
MARATHON       CLEAR     84  77  79 E5        30.04R
KEY WEST NAS   PTCLDY    84  77  79 E14       30.04R
KEY WEST INTL  PTCLDY    85  78  80 E12       30.04R HX  96

STATION/POSITION SKY/WX   TEMP    WIND        PRES    WAVE   SWELL
                          AIR SEA DIR/SP/G            HT/PER HT/PER
                          (F)     (DEG/KT/KT) (MB)    (FT/S) (FT/S)
NAPLES                        87                N/A
26.0N   85.6W              79 86  240/ 21/ 27 1018.1R   2/ 5
DRY TORTUGAS               85     120/  9/ 11 1017.1R
SAND KEY                   84     110/ 14/ 16 1017.5R
LONG KEY                   85 87  120/ 11/ 13 1017.7R

$$
FLZ067-068-071>074-168-172>174-260300-
SOUTHEAST FLORIDA

CITY           SKY/WX    TMP DP  RH WIND       PRES   REMARKS
W PALM BEACH   PTCLDY    85  75  72 SE9       30.07R
BOCA RATON     CLEAR     82  79  89 E6        30.06S
FT LAUDER-EXEC CLEAR     84  74  71 SE7       30.06R
FT LAUDERDALE  PTCLDY    85  75  72 E8        30.05S
POMPANO BEACH  CLEAR     85  76  74 E7        30.06S
PEMBROKE PINES CLEAR     84  74  71 E6        30.07R
OPA LOCKA      CLEAR     83  75  77 SE7       30.06S
MIAMI          PTCLDY    84  75  74 SE9       30.06R
WEST KENDALL   CLEAR     83  75  77 E8        30.05S
HOMESTEAD      CLEAR     83  76  78 E5        30.05S

STATION/POSITION SKY/WX   TEMP    WIND        PRES    WAVE   SWELL
                          AIR SEA DIR/SP/G            HT/PER HT/PER
                          (F)     (DEG/KT/KT) (MB)    (FT/S) (FT/S)
PORT EVERGLADES            85     120/  4/  8 1017.9R
VIRGINIA KEY               85 89  110/  6/  9   N/A
LAKE WORTH                        140/  7/  9   N/A
FOWEY ROCKS                85 85  100/  8/ 10 1018.3R
SETTLEMENT POINT           83     130/  5/  6 1019.3R

$$




USA.gov is the U.S. government's official web portal to all federal, state and local government web resources and services.